NSZ3730 EKCH-EKYT

Flight info

Callsign NSZ3730
Flight time 0h 35m
Altitude 15000
Route GOLGA DCT AAL
Aircraft B738/M-SDE2E3FGHIRWXY/LB1

Departure

Time 2026-04-25 13:59
Airport Copenhagen Kastrup Airport (EKCH)

Arrival

Time 2026-04-25 14:34
Airport Aalborg Airport (EKYT)
Time Latitude Longitude Altitude Speed Heading
2026-04-25 13:37 55.62782 12.64169 21 ft 0 kts 136°
2026-04-25 13:49 55.62794 12.64150 21 ft 2 kts 139°
2026-04-25 13:49 55.62807 12.64132 22 ft 2 kts 145°
2026-04-25 13:50 55.62821 12.64117 20 ft 2 kts 159°
2026-04-25 13:50 55.62837 12.64114 23 ft 2 kts 213°
2026-04-25 13:50 55.62846 12.64130 23 ft 1 kts 244°
2026-04-25 13:50 55.62846 12.64133 24 ft 0 kts 245°
2026-04-25 13:53 55.62845 12.64127 22 ft 1 kts 245°
2026-04-25 13:54 55.62842 12.64116 22 ft 2 kts 245°
2026-04-25 13:54 55.62829 12.64066 22 ft 7 kts 246°
2026-04-25 13:54 55.62796 12.63982 21 ft 9 kts 218°
2026-04-25 13:54 55.62744 12.63923 22 ft 9 kts 212°
2026-04-25 13:55 55.62684 12.63857 22 ft 11 kts 205°
2026-04-25 13:55 55.62625 12.63927 24 ft 12 kts 124°
2026-04-25 13:55 55.62573 12.64069 21 ft 16 kts 122°
2026-04-25 13:55 55.62506 12.64247 20 ft 19 kts 124°
2026-04-25 13:56 55.62429 12.64425 17 ft 11 kts 139°
2026-04-25 13:56 55.62358 12.64435 18 ft 11 kts 194°
2026-04-25 13:56 55.62349 12.64431 18 ft 1 kts 194°
2026-04-25 13:56 55.62310 12.64413 18 ft 12 kts 194°
2026-04-25 13:57 55.62177 12.64326 15 ft 23 kts 205°
2026-04-25 13:57 55.62130 12.64286 16 ft 22 kts 204°
2026-04-25 13:57 55.61900 12.64098 27 ft 21 kts 206°
2026-04-25 13:57 55.61755 12.64080 26 ft 21 kts 176°
2026-04-25 13:58 55.61617 12.64052 26 ft 20 kts 212°
2026-04-25 13:58 55.61505 12.63880 25 ft 29 kts 221°
2026-04-25 13:58 55.61137 12.63304 26 ft 111 kts 221°
2026-04-25 13:58 55.60388 12.62096 94 ft 172 kts 229°
2026-04-25 13:59 55.59455 12.60551 721 ft 193 kts 229°
2026-04-25 13:59 55.58430 12.58952 1595 ft 200 kts 230°
2026-04-25 13:59 55.57354 12.57292 2132 ft 215 kts 230°
2026-04-25 13:59 55.56329 12.55391 2751 ft 210 kts 248°
2026-04-25 14:00 55.56134 12.54593 2966 ft 207 kts 258°
2026-04-25 14:00 55.56175 12.50481 4100 ft 203 kts 292°
2026-04-25 14:00 55.57007 12.48468 4802 ft 206 kts 313°
2026-04-25 14:00 55.58178 12.46949 5456 ft 212 kts 324°
2026-04-25 14:01 55.59447 12.45649 6123 ft 215 kts 326°
2026-04-25 14:01 55.60758 12.44355 6767 ft 216 kts 326°
2026-04-25 14:01 55.62075 12.43056 7458 ft 216 kts 325°
2026-04-25 14:01 55.63393 12.41750 8170 ft 217 kts 325°
2026-04-25 14:02 55.64708 12.40440 8962 ft 217 kts 324°
2026-04-25 14:02 55.66020 12.39126 9739 ft 217 kts 324°
2026-04-25 14:02 55.67336 12.37804 10419 ft 217 kts 323°
2026-04-25 14:02 55.67763 12.37374 10634 ft 218 kts 323°
2026-04-25 14:03 55.69960 12.35154 11752 ft 219 kts 323°
2026-04-25 14:03 55.71288 12.33809 12435 ft 220 kts 322°
2026-04-25 14:03 55.72618 12.32458 13105 ft 221 kts 322°
2026-04-25 14:03 55.73958 12.31096 13758 ft 222 kts 322°
2026-04-25 14:04 55.75302 12.29727 14360 ft 222 kts 322°
2026-04-25 14:04 55.76194 12.28818 14696 ft 224 kts 322°
2026-04-25 14:04 55.77540 12.27446 14783 ft 222 kts 322°
2026-04-25 14:04 55.78882 12.26077 14831 ft 223 kts 322°
2026-04-25 14:05 55.80234 12.24692 14832 ft 225 kts 322°
2026-04-25 14:05 55.81586 12.23309 14836 ft 224 kts 322°
2026-04-25 14:05 55.83378 12.21474 14845 ft 224 kts 322°
2026-04-25 14:05 55.84292 12.20537 14839 ft 224 kts 322°
2026-04-25 14:06 55.85641 12.19153 14842 ft 224 kts 322°
2026-04-25 14:06 55.86973 12.17785 14846 ft 224 kts 322°
2026-04-25 14:06 55.88321 12.16400 14838 ft 224 kts 321°
2026-04-25 14:06 55.89666 12.15016 14837 ft 223 kts 322°
2026-04-25 14:07 55.91013 12.13630 14838 ft 223 kts 321°
2026-04-25 14:07 55.92360 12.12241 14841 ft 223 kts 321°
2026-04-25 14:07 55.93704 12.10856 14840 ft 223 kts 321°
2026-04-25 14:07 55.95048 12.09468 14835 ft 223 kts 321°
2026-04-25 14:08 55.96390 12.08081 14835 ft 223 kts 321°
2026-04-25 14:08 55.97732 12.06695 14833 ft 223 kts 321°
2026-04-25 14:08 55.99072 12.05308 14835 ft 223 kts 321°
2026-04-25 14:08 56.00411 12.03921 14829 ft 222 kts 321°
2026-04-25 14:09 56.01733 12.02551 14831 ft 222 kts 321°
2026-04-25 14:09 56.03075 12.01159 14835 ft 222 kts 321°
2026-04-25 14:09 56.04420 11.99760 14816 ft 230 kts 321°
2026-04-25 14:09 56.05386 11.98745 14823 ft 247 kts 322°
2026-04-25 14:10 56.06919 11.97132 14848 ft 270 kts 322°
2026-04-25 14:10 56.09219 11.94721 14846 ft 301 kts 323°
2026-04-25 14:10 56.11087 11.92771 14842 ft 321 kts 323°
2026-04-25 14:10 56.13053 11.90721 14839 ft 338 kts 324°
2026-04-25 14:11 56.15128 11.88561 14843 ft 348 kts 324°
2026-04-25 14:11 56.17242 11.86365 14820 ft 350 kts 324°
2026-04-25 14:11 56.19345 11.84176 14809 ft 349 kts 324°
2026-04-25 14:11 56.21443 11.81985 14809 ft 348 kts 324°
2026-04-25 14:12 56.23534 11.79793 14808 ft 348 kts 324°
2026-04-25 14:12 56.25624 11.77598 14808 ft 348 kts 324°
2026-04-25 14:12 56.27717 11.75395 14811 ft 348 kts 324°
2026-04-25 14:12 56.29780 11.73220 14808 ft 348 kts 324°
2026-04-25 14:13 56.31867 11.71002 14809 ft 348 kts 323°
2026-04-25 14:13 56.33814 11.68463 14804 ft 344 kts 316°
2026-04-25 14:13 56.35529 11.65471 14813 ft 342 kts 311°
2026-04-25 14:13 56.37178 11.62372 14811 ft 342 kts 311°
2026-04-25 14:14 56.38829 11.59268 14805 ft 343 kts 311°
2026-04-25 14:14 56.40481 11.56165 14804 ft 343 kts 311°
2026-04-25 14:14 56.42136 11.53057 14810 ft 343 kts 311°
2026-04-25 14:14 56.43789 11.49955 14804 ft 343 kts 311°
2026-04-25 14:15 56.45446 11.46845 14804 ft 343 kts 311°
2026-04-25 14:15 56.46541 11.44788 14802 ft 343 kts 311°
2026-04-25 14:15 56.48754 11.40628 14808 ft 343 kts 311°
2026-04-25 14:15 56.50409 11.37512 14806 ft 343 kts 311°
2026-04-25 14:16 56.52045 11.34429 14808 ft 343 kts 311°
2026-04-25 14:16 56.53702 11.31304 14792 ft 331 kts 311°
2026-04-25 14:16 56.55239 11.28406 14793 ft 315 kts 311°
2026-04-25 14:16 56.56747 11.25557 14804 ft 310 kts 311°
2026-04-25 14:17 56.59881 11.19613 14535 ft 313 kts 311°
2026-04-25 14:17 56.61369 11.16787 14148 ft 308 kts 312°
2026-04-25 14:17 56.62845 11.13980 13725 ft 305 kts 312°
2026-04-25 14:18 56.64304 11.11204 13198 ft 302 kts 312°
2026-04-25 14:18 56.65729 11.08486 12711 ft 299 kts 312°
2026-04-25 14:18 56.67161 11.05755 12194 ft 297 kts 312°
2026-04-25 14:18 56.68579 11.03046 11727 ft 295 kts 312°
2026-04-25 14:19 56.69990 11.00348 11246 ft 293 kts 313°
2026-04-25 14:19 56.71388 10.97670 10775 ft 291 kts 313°
2026-04-25 14:19 56.72766 10.95028 10639 ft 283 kts 313°
2026-04-25 14:19 56.74108 10.92455 10499 ft 277 kts 313°
2026-04-25 14:20 56.75433 10.89910 10374 ft 277 kts 313°
2026-04-25 14:20 56.76313 10.88217 10301 ft 276 kts 313°
2026-04-25 14:20 56.78045 10.84884 10136 ft 264 kts 313°
2026-04-25 14:20 56.79285 10.82494 10026 ft 254 kts 313°
2026-04-25 14:21 56.80465 10.80218 9916 ft 245 kts 313°
2026-04-25 14:21 56.81613 10.78002 9815 ft 236 kts 313°
2026-04-25 14:21 56.82734 10.75836 9552 ft 233 kts 313°
2026-04-25 14:21 56.83840 10.73695 9275 ft 231 kts 313°
2026-04-25 14:22 56.84941 10.71562 8991 ft 229 kts 313°
2026-04-25 14:22 56.86031 10.69449 8715 ft 228 kts 313°
2026-04-25 14:22 56.87112 10.67353 8438 ft 226 kts 313°
2026-04-25 14:22 56.87756 10.66102 8282 ft 225 kts 313°
2026-04-25 14:23 56.88464 10.64726 8107 ft 224 kts 313°
2026-04-25 14:24 56.89527 10.62660 7844 ft 222 kts 313°
2026-04-25 14:24 56.90581 10.60609 7593 ft 221 kts 314°
2026-04-25 14:24 56.91628 10.58569 7327 ft 219 kts 314°
2026-04-25 14:24 56.92669 10.56539 7061 ft 218 kts 314°
2026-04-25 14:25 56.93006 10.55884 6987 ft 218 kts 314°
2026-04-25 14:25 56.93596 10.54733 6843 ft 217 kts 314°
2026-04-25 14:25 56.94615 10.52743 6590 ft 215 kts 314°
2026-04-25 14:25 56.94961 10.52066 6508 ft 215 kts 314°
2026-04-25 14:26 56.96654 10.48757 6075 ft 213 kts 314°
2026-04-25 14:26 56.97665 10.46778 5811 ft 212 kts 314°
2026-04-25 14:26 56.98669 10.44811 5554 ft 210 kts 315°
2026-04-25 14:26 56.99666 10.42856 5307 ft 209 kts 315°
2026-04-25 14:27 57.00653 10.40919 5058 ft 207 kts 315°
2026-04-25 14:27 57.01635 10.38990 4806 ft 206 kts 315°
2026-04-25 14:27 57.02610 10.37074 4544 ft 205 kts 315°
2026-04-25 14:27 57.03582 10.35162 4296 ft 204 kts 315°
2026-04-25 14:28 57.04539 10.33279 4048 ft 204 kts 315°
2026-04-25 14:28 57.05506 10.31375 3805 ft 205 kts 315°
2026-04-25 14:28 57.06483 10.29451 3581 ft 205 kts 315°
2026-04-25 14:28 57.07447 10.27547 3376 ft 201 kts 315°
2026-04-25 14:29 57.08378 10.25702 3207 ft 192 kts 315°
2026-04-25 14:29 57.09270 10.23940 2975 ft 184 kts 315°
2026-04-25 14:29 57.10110 10.22274 2865 ft 170 kts 316°
2026-04-25 14:29 57.10865 10.20718 2829 ft 157 kts 308°
2026-04-25 14:30 57.11095 10.18733 2872 ft 165 kts 279°
2026-04-25 14:30 57.11246 10.14506 2864 ft 166 kts 279°
2026-04-25 14:30 57.11223 10.12336 2755 ft 173 kts 275°
2026-04-25 14:31 57.11114 10.10097 2517 ft 176 kts 272°
2026-04-25 14:31 57.10974 10.07918 2285 ft 172 kts 272°
2026-04-25 14:31 57.10832 10.05768 2040 ft 166 kts 271°
2026-04-25 14:31 57.10694 10.03709 1819 ft 159 kts 271°
2026-04-25 14:32 57.10565 10.01720 1608 ft 154 kts 271°
2026-04-25 14:32 57.10435 9.99730 1409 ft 160 kts 272°
2026-04-25 14:32 57.10301 9.97673 1163 ft 163 kts 272°
2026-04-25 14:32 57.10167 9.95645 921 ft 155 kts 270°
2026-04-25 14:33 57.10041 9.93724 759 ft 146 kts 270°
2026-04-25 14:33 57.09921 9.91840 508 ft 148 kts 269°
2026-04-25 14:33 57.09796 9.89922 300 ft 159 kts 268°
2026-04-25 14:33 57.09665 9.87899 66 ft 155 kts 266°
2026-04-25 14:34 57.09556 9.86101 18 ft 125 kts 263°
2026-04-25 14:34 57.09472 9.84857 20 ft 68 kts 264°
2026-04-25 14:34 57.09434 9.84330 18 ft 10 kts 243°
2026-04-25 14:34 57.09377 9.84324 19 ft 9 kts 144°
2026-04-25 14:35 57.09326 9.84399 18 ft 10 kts 141°
2026-04-25 14:35 57.09266 9.84506 18 ft 15 kts 118°
2026-04-25 14:35 57.09270 9.84719 18 ft 19 kts 83°
2026-04-25 14:35 57.09287 9.84988 18 ft 23 kts 83°
2026-04-25 14:36 57.09305 9.85282 18 ft 23 kts 84°
2026-04-25 14:36 57.09324 9.85566 18 ft 22 kts 83°
2026-04-25 14:36 57.09341 9.85843 18 ft 21 kts 92°
2026-04-25 14:36 57.09241 9.86032 18 ft 21 kts 142°
2026-04-25 14:37 57.09124 9.86194 18 ft 23 kts 142°
2026-04-25 14:37 57.08987 9.86387 18 ft 26 kts 142°
2026-04-25 14:37 57.08846 9.86587 18 ft 25 kts 141°
2026-04-25 14:37 57.08719 9.86778 18 ft 22 kts 140°
2026-04-25 14:38 57.08646 9.86906 19 ft 9 kts 110°
2026-04-25 14:38 57.08670 9.87001 18 ft 8 kts 54°
2026-04-25 14:38 57.08675 9.87014 18 ft 0 kts 53°